TimeEDT,TemperatureF,Dew PointF,Humidity,Sea Level PressureIn,VisibilityMPH,Wind Direction,Wind SpeedMPH,Gust SpeedMPH,PrecipitationIn,Events,Conditions,WindDirDegrees,DateUTC
12:53 AM,50.0,48.0,93,30.16,10.0,Calm,Calm,-,N/A,,Clear,0,2012-10-22 04:53:00
1:53 AM,50.0,46.9,89,30.17,10.0,Calm,Calm,-,N/A,,Clear,0,2012-10-22 05:53:00
2:53 AM,48.9,46.9,93,30.17,9.0,Calm,Calm,-,N/A,,Clear,0,2012-10-22 06:53:00
3:53 AM,46.9,45.0,93,30.17,9.0,Calm,Calm,-,N/A,,Clear,0,2012-10-22 07:53:00
4:53 AM,46.9,45.0,93,30.17,10.0,Calm,Calm,-,N/A,,Clear,0,2012-10-22 08:53:00
5:53 AM,46.0,44.1,93,30.18,10.0,Calm,Calm,-,N/A,,Clear,0,2012-10-22 09:53:00
6:53 AM,46.0,44.1,93,30.20,10.0,Calm,Calm,-,N/A,,Clear,0,2012-10-22 10:53:00
7:53 AM,46.0,43.0,89,30.22,10.0,Calm,Calm,-,N/A,,Clear,0,2012-10-22 11:53:00
8:53 AM,51.1,46.9,86,30.24,10.0,Calm,Calm,-,N/A,,Clear,0,2012-10-22 12:53:00
9:53 AM,60.1,50.0,69,30.25,10.0,Calm,Calm,-,N/A,,Clear,0,2012-10-22 13:53:00
10:53 AM,66.9,48.0,51,30.25,10.0,Calm,Calm,-,N/A,,Clear,0,2012-10-22 14:53:00
11:53 AM,70.0,46.0,42,30.24,10.0,East,4.6,-,N/A,,Clear,100,2012-10-22 15:53:00
12:53 PM,72.0,46.0,40,30.22,10.0,Variable,4.6,-,N/A,,Clear,0,2012-10-22 16:53:00
1:53 PM,73.0,46.9,39,30.19,10.0,East,4.6,-,N/A,,Clear,100,2012-10-22 17:53:00
2:53 PM,75.9,48.0,37,30.16,10.0,Variable,3.5,-,N/A,,Clear,0,2012-10-22 18:53:00
3:53 PM,75.9,46.9,36,30.15,10.0,North,4.6,-,N/A,,Clear,360,2012-10-22 19:53:00
4:53 PM,75.9,46.9,36,30.14,10.0,NNE,4.6,-,N/A,,Clear,30,2012-10-22 20:53:00
5:53 PM,73.9,48.9,41,30.14,10.0,Calm,Calm,-,N/A,,Clear,0,2012-10-22 21:53:00
6:53 PM,64.9,54.0,68,30.15,10.0,Calm,Calm,-,N/A,,Clear,0,2012-10-22 22:53:00
7:53 PM,61.0,53.1,75,30.17,10.0,Calm,Calm,-,N/A,,Clear,0,2012-10-22 23:53:00
8:53 PM,57.9,53.1,84,30.18,10.0,Calm,Calm,-,N/A,,Clear,0,2012-10-23 00:53:00
9:53 PM,55.9,52.0,87,30.19,10.0,Calm,Calm,-,N/A,,Clear,0,2012-10-23 01:53:00
10:53 PM,54.0,51.1,90,30.20,10.0,Calm,Calm,-,N/A,,Clear,0,2012-10-23 02:53:00
11:53 PM,53.1,50.0,89,30.20,10.0,Calm,Calm,-,N/A,,Clear,0,2012-10-23 03:53:00